Find A-SEANSAT-PG1

NORAD ID: 57197 Int'l Des: 2023-091 Owner: ANGKX Country: MY operational
LEOCIRCULARRETROGRADESSO

現在のビュー

3D地球を読み込み中...

A-SEANSAT-PG1について

説明を読み込み中...

次回通過

Passes for default location (London). Set your location on the main map for personalized predictions.

高度履歴

Loading altitude history...

軌道要素

1 57197U 23091AH 26150.16844175 .00025203 00000-0 71307-3 0 9997
2 57197 97.5092 219.3738 0008565 138.0841 222.1060 15.36261554161947
Epoch: May 30, 2026 • Age: 8 hours

現在のステータス

高度 466.5 km
速度 7.64 km/s
衛星直下点 66.22°N, 132.13°E
打ち上げ日 Jun 27, 2023
運用期間 2.9 years
タイプ other

技術仕様

分類 Payload
質量 10.00 kg
乾燥質量 10.00 kg
総質量 10.00 kg
長さ 0.30 m
直径 0.20 m
スパン 0.30 m
形状 Box
製造者 ANGKX
バスタイプ Cubesat 6U
フェーズステータス In Orbit
所有者/国 ANGKX/MY

Most Searched